Preview of NWS' New Version of Forecast
This preview is not operational and should not be used for support decisions.

Regional Weather Roundup (RWR)

Issued by National Weather Service (NWS)

                            
000
ASUS45 KBOI 240210
RWRID 

IDAHO REGIONAL WEATHER ROUNDUP
NATIONAL WEATHER SERVICE BOISE ID
800 PM MDT SUN JUN 23 2019

NOTE: "FAIR" INDICATES FEW OR NO CLOUDS BELOW 12000 FEET
WITH NO SIGNIFICANT WEATHER AND/OR OBSTRUCTIONS TO VISIBILITY

IDZ012-014-240300-
SOUTHWEST IDAHO

  
CITY           SKY/WX    TMP DP  RH WIND       PRES   REMARKS
BOISE          SUNNY     75  37  25 N13       29.93F                  
CALDWELL       SUNNY     74  42  31 NW7       29.93S                  
MOUNTAIN HOME  SUNNY     76  31  19 N16       29.92S                  
$$

IDZ016-017-240300-
SOUTHCENTRAL IDAHO

  
CITY           SKY/WX    TMP DP  RH WIND       PRES   REMARKS
BURLEY         SUNNY     70  34  26 W12G20    29.95R                  
JEROME         SUNNY     71  34  25 NW21G26   29.96R                  
TWIN FALLS     SUNNY     71  31  22 NW16      29.97R                  
$$

IDZ019>023-240300-
SOUTHEAST IDAHO

  
CITY           SKY/WX    TMP DP  RH WIND       PRES   REMARKS
IDAHO FALLS    MOSUNNY   69  35  28 SW20G33   29.92S                  
POCATELLO      MOSUNNY   71  41  33 SW17      29.95R                  
REXBURG        MOSUNNY   69  35  28 SW17G24   29.91S                  
$$

IDZ006-010-011-018-031-032-240300-
CENTRAL IDAHO MOUNTAINS

  
CITY           SKY/WX    TMP DP  RH WIND       PRES   REMARKS
MCCALL         SUNNY     62  37  39 W13       30.00S                  
HAILEY         SUNNY     64  36  34 SW12G21   29.97S                  
STANLEY          N/A     60  25  26 NW12      30.05S                  
SALMON         CLOUDY    65  43  44 N13       29.92R                  
CHALLIS        MOSUNNY   71  31  22 W9        29.92S                  
$$

IDZ002-004-006-007-026-240300-
NORTHERN IDAHO

  
CITY           SKY/WX    TMP DP  RH WIND       PRES   REMARKS
LEWISTON       MOSUNNY   75  40  28 NW9       29.93S                  
LOWELL           N/A     64  54  69 CALM      29.95R                  
COEUR D'ALENE  CLOUDY    66  43  43 SW10      29.93S                  
MULLAN PASS    PTSUNNY   47  38  71 VRB6      30.03S                  
$$